Time,TemperatureF,DewpointF,PressureIn,WindDirection,WindDirectionDegrees,WindSpeedMPH,WindSpeedGustMPH,Humidity,HourlyPrecipIn,Conditions,Clouds,dailyrainin,SoftwareType,DateUTC
2013-01-11 00:03:00,36.5,29.7,30.58,NNE,20,0.0,10.0,76,0.00,,,0.00,Wunderground v.1.15,2013-01-11 05:03:00,
2013-01-11 00:07:00,36.7,29.8,30.58,NNE,20,0.0,10.0,76,0.00,,,0.00,Wunderground v.1.15,2013-01-11 05:07:00,
2013-01-11 00:09:00,36.8,29.9,30.58,NNE,20,0.0,10.0,76,0.00,,,0.00,Wunderground v.1.15,2013-01-11 05:09:00,
2013-01-11 00:15:00,37.3,30.1,30.57,NNE,20,0.0,10.0,75,0.00,,,0.00,Wunderground v.1.15,2013-01-11 05:15:00,
2013-01-11 00:21:00,37.8,30.3,30.57,NNE,20,0.0,10.0,74,0.00,,,0.00,Wunderground v.1.15,2013-01-11 05:21:00,
2013-01-11 00:27:00,38.3,30.4,30.57,NNE,20,1.0,10.0,73,0.00,,,0.00,Wunderground v.1.15,2013-01-11 05:27:00,
2013-01-11 00:33:00,38.5,30.6,30.57,NNE,20,1.0,10.0,73,0.00,,,0.00,Wunderground v.1.15,2013-01-11 05:33:00,
2013-01-11 00:39:00,38.8,30.9,30.56,NE,40,1.0,10.0,73,0.00,,,0.00,Wunderground v.1.15,2013-01-11 05:39:00,
2013-01-11 00:45:00,38.9,31.0,30.57,NE,41,1.0,10.0,73,0.00,,,0.00,Wunderground v.1.15,2013-01-11 05:45:00,
2013-01-11 00:51:00,39.3,31.0,30.57,ESE,115,1.0,1.0,72,0.00,,,0.00,Wunderground v.1.15,2013-01-11 05:51:00,
2013-01-11 00:57:00,39.6,31.0,30.56,NE,38,1.0,10.0,71,0.00,,,0.00,Wunderground v.1.15,2013-01-11 05:57:00,
2013-01-11 01:03:00,39.9,31.6,30.56,NNE,24,1.0,3.0,72,0.00,,,0.00,Wunderground v.1.15,2013-01-11 06:03:00,
2013-01-11 01:09:00,40.1,31.4,30.56,NNE,30,1.0,10.0,71,0.00,,,0.00,Wunderground v.1.15,2013-01-11 06:09:00,
2013-01-11 01:15:00,40.0,31.4,30.56,NNE,30,1.0,10.0,71,0.00,,,0.00,Wunderground v.1.15,2013-01-11 06:15:00,
2013-01-11 01:21:00,40.1,31.4,30.55,NE,46,1.0,10.0,71,0.00,,,0.00,Wunderground v.1.15,2013-01-11 06:21:00,
2013-01-11 01:27:00,40.1,31.4,30.55,NE,53,1.0,10.0,71,0.00,,,0.00,Wunderground v.1.15,2013-01-11 06:27:00,
2013-01-11 01:33:00,40.2,31.5,30.56,NE,55,1.0,10.0,71,0.00,,,0.00,Wunderground v.1.15,2013-01-11 06:33:00,
2013-01-11 01:39:00,40.3,31.3,30.56,NE,51,1.0,10.0,70,0.00,,,0.00,Wunderground v.1.15,2013-01-11 06:39:00,
2013-01-11 01:45:00,40.3,31.6,30.56,NE,37,2.0,10.0,71,0.00,,,0.00,Wunderground v.1.15,2013-01-11 06:45:00,
2013-01-11 01:51:00,40.3,31.6,30.55,NE,51,1.0,10.0,71,0.00,,,0.00,Wunderground v.1.15,2013-01-11 06:51:00,
2013-01-11 01:57:00,40.2,31.5,30.55,NE,36,1.0,10.0,71,0.00,,,0.00,Wunderground v.1.15,2013-01-11 06:57:00,
2013-01-11 02:03:00,40.2,31.5,30.55,NE,49,1.0,2.0,71,0.00,,,0.00,Wunderground v.1.15,2013-01-11 07:03:00,
2013-01-11 02:09:00,40.3,31.6,30.55,North,5,2.0,3.0,71,0.00,,,0.00,Wunderground v.1.15,2013-01-11 07:09:00,
2013-01-11 02:15:00,40.3,31.6,30.55,NNE,24,1.0,4.0,71,0.00,,,0.00,Wunderground v.1.15,2013-01-11 07:15:00,
2013-01-11 02:21:00,40.4,31.4,30.56,NE,48,2.0,2.0,70,0.00,,,0.00,Wunderground v.1.15,2013-01-11 07:21:00,
2013-01-11 02:27:00,40.4,31.4,30.55,NNE,32,1.0,2.0,70,0.00,,,0.00,Wunderground v.1.15,2013-01-11 07:27:00,
2013-01-11 02:33:00,40.4,31.4,30.55,NE,44,1.0,3.0,70,0.00,,,0.00,Wunderground v.1.15,2013-01-11 07:33:00,
2013-01-11 02:39:00,40.2,31.2,30.55,NE,44,1.0,3.0,70,0.00,,,0.00,Wunderground v.1.15,2013-01-11 07:39:00,
2013-01-11 02:45:00,40.0,31.0,30.55,NE,40,1.0,2.0,70,0.00,,,0.00,Wunderground v.1.15,2013-01-11 07:45:00,
2013-01-11 02:51:00,40.0,31.0,30.55,NE,50,1.0,3.0,70,0.00,,,0.00,Wunderground v.1.15,2013-01-11 07:51:00,
2013-01-11 02:57:00,40.0,31.4,30.53,NE,50,1.0,3.0,71,0.00,,,0.00,Wunderground v.1.15,2013-01-11 07:57:00,
2013-01-11 03:03:00,40.0,31.4,30.53,NE,47,1.0,1.0,71,0.00,,,0.00,Wunderground v.1.15,2013-01-11 08:03:00,
2013-01-11 03:09:00,39.8,31.2,30.53,SE,140,1.0,4.0,71,0.00,,,0.00,Wunderground v.1.15,2013-01-11 08:09:00,
2013-01-11 03:15:00,39.7,31.1,30.53,North,360,1.0,4.0,71,0.00,,,0.00,Wunderground v.1.15,2013-01-11 08:15:00,
2013-01-11 03:21:00,39.6,31.0,30.53,NNE,30,1.0,4.0,71,0.00,,,0.00,Wunderground v.1.15,2013-01-11 08:21:00,
2013-01-11 03:27:00,39.6,31.0,30.53,NE,42,2.0,4.0,71,0.00,,,0.00,Wunderground v.1.15,2013-01-11 08:27:00,
2013-01-11 03:33:00,39.4,30.8,30.53,NE,42,0.0,4.0,71,0.00,,,0.00,Wunderground v.1.15,2013-01-11 08:33:00,
2013-01-11 03:39:00,39.1,30.8,30.53,NE,42,1.0,4.0,72,0.00,,,0.00,Wunderground v.1.15,2013-01-11 08:39:00,
2013-01-11 03:45:00,39.2,30.9,30.53,NE,34,1.0,4.0,72,0.00,,,0.00,Wunderground v.1.15,2013-01-11 08:45:00,
2013-01-11 03:51:00,39.0,30.7,30.52,NE,34,0.0,4.0,72,0.00,,,0.00,Wunderground v.1.15,2013-01-11 08:51:00,
2013-01-11 03:57:00,38.7,30.8,30.52,NE,34,0.0,4.0,73,0.00,,,0.00,Wunderground v.1.15,2013-01-11 08:57:00,
2013-01-11 04:03:00,38.4,30.8,30.51,NE,34,0.0,4.0,74,0.00,,,0.00,Wunderground v.1.15,2013-01-11 09:03:00,
2013-01-11 04:09:00,38.2,31.0,30.50,ENE,63,0.0,4.0,75,0.00,,,0.00,Wunderground v.1.15,2013-01-11 09:09:00,
2013-01-11 04:15:00,38.2,31.3,30.50,East,82,1.0,4.0,76,0.00,,,0.00,Wunderground v.1.15,2013-01-11 09:15:00,
2013-01-11 04:21:00,38.5,31.6,30.49,ENE,61,1.0,4.0,76,0.00,,,0.00,Wunderground v.1.15,2013-01-11 09:21:00,
2013-01-11 04:27:00,38.7,31.8,30.50,NNE,26,1.0,4.0,76,0.00,,,0.00,Wunderground v.1.15,2013-01-11 09:27:00,
2013-01-11 04:33:00,38.9,32.0,30.50,ESE,119,1.0,4.0,76,0.00,,,0.00,Wunderground v.1.15,2013-01-11 09:33:00,
2013-01-11 04:39:00,39.1,32.2,30.50,ESE,118,0.0,4.0,76,0.00,,,0.00,Wunderground v.1.15,2013-01-11 09:39:00,
2013-01-11 04:45:00,39.2,32.3,30.50,ENE,59,1.0,4.0,76,0.00,,,0.00,Wunderground v.1.15,2013-01-11 09:45:00,
2013-01-11 04:51:00,39.4,32.5,30.51,ENE,59,0.0,4.0,76,0.00,,,0.00,Wunderground v.1.15,2013-01-11 09:51:00,
2013-01-11 04:57:00,39.5,32.6,30.51,ENE,59,0.0,4.0,76,0.00,,,0.00,Wunderground v.1.15,2013-01-11 09:57:00,
2013-01-11 05:03:00,39.4,32.5,30.51,ENE,59,0.0,4.0,76,0.00,,,0.00,Wunderground v.1.15,2013-01-11 10:03:00,
2013-01-11 05:09:00,39.3,32.7,30.50,ENE,59,0.0,4.0,77,0.00,,,0.00,Wunderground v.1.15,2013-01-11 10:09:00,
2013-01-11 05:15:00,39.1,32.8,30.50,ENE,59,0.0,4.0,78,0.00,,,0.00,Wunderground v.1.15,2013-01-11 10:15:00,
2013-01-11 05:21:00,39.0,32.7,30.51,ENE,59,0.0,4.0,78,0.00,,,0.00,Wunderground v.1.15,2013-01-11 10:21:00,
2013-01-11 05:27:00,39.0,32.7,30.51,ENE,59,0.0,4.0,78,0.00,,,0.00,Wunderground v.1.15,2013-01-11 10:27:00,
2013-01-11 05:33:00,39.2,32.9,30.51,ENE,59,0.0,4.0,78,0.00,,,0.00,Wunderground v.1.15,2013-01-11 10:33:00,
2013-01-11 05:39:00,39.3,33.0,30.51,East,84,0.0,4.0,78,0.00,,,0.00,Wunderground v.1.15,2013-01-11 10:39:00,
2013-01-11 05:45:00,39.4,33.4,30.51,East,84,0.0,4.0,79,0.00,,,0.00,Wunderground v.1.15,2013-01-11 10:45:00,
2013-01-11 05:51:00,39.5,33.5,30.51,East,84,0.0,4.0,79,0.00,,,0.00,Wunderground v.1.15,2013-01-11 10:51:00,
2013-01-11 05:57:00,39.5,33.5,30.52,East,84,0.0,4.0,79,0.00,,,0.00,Wunderground v.1.15,2013-01-11 10:57:00,
2013-01-11 06:03:00,39.3,33.3,30.51,East,84,0.0,4.0,79,0.00,,,0.00,Wunderground v.1.15,2013-01-11 11:03:00,
2013-01-11 06:09:00,39.2,33.2,30.52,East,84,0.0,4.0,79,0.00,,,0.00,Wunderground v.1.15,2013-01-11 11:09:00,
2013-01-11 06:15:00,38.9,32.9,30.51,East,84,0.0,4.0,79,0.00,,,0.00,Wunderground v.1.15,2013-01-11 11:15:00,
2013-01-11 06:21:00,38.9,33.3,30.52,East,84,0.0,4.0,80,0.00,,,0.00,Wunderground v.1.15,2013-01-11 11:21:00,
2013-01-11 06:27:00,38.6,33.3,30.52,East,84,0.0,4.0,81,0.00,,,0.00,Wunderground v.1.15,2013-01-11 11:27:00,
2013-01-11 06:33:00,38.3,33.0,30.52,East,84,0.0,4.0,81,0.00,,,0.00,Wunderground v.1.15,2013-01-11 11:33:00,
2013-01-11 06:39:00,38.2,32.9,30.51,East,84,0.0,4.0,81,0.00,,,0.00,Wunderground v.1.15,2013-01-11 11:39:00,
2013-01-11 06:45:00,38.0,33.0,30.51,East,84,0.0,4.0,82,0.00,,,0.00,Wunderground v.1.15,2013-01-11 11:45:00,
2013-01-11 06:51:00,37.9,33.2,30.52,East,84,0.0,4.0,83,0.00,,,0.00,Wunderground v.1.15,2013-01-11 11:51:00,
2013-01-11 06:57:00,37.8,33.1,30.51,East,84,0.0,4.0,83,0.00,,,0.00,Wunderground v.1.15,2013-01-11 11:57:00,
2013-01-11 07:03:00,37.7,33.0,30.51,East,84,0.0,4.0,83,0.00,,,0.00,Wunderground v.1.15,2013-01-11 12:03:00,
2013-01-11 07:09:00,37.7,33.0,30.51,East,84,0.0,4.0,83,0.00,,,0.00,Wunderground v.1.15,2013-01-11 12:09:00,
2013-01-11 07:15:00,37.6,32.9,30.51,East,84,0.0,4.0,83,0.00,,,0.00,Wunderground v.1.15,2013-01-11 12:15:00,
2013-01-11 07:21:00,37.7,33.3,30.51,East,84,0.0,4.0,84,0.00,,,0.00,Wunderground v.1.15,2013-01-11 12:21:00,
2013-01-11 07:27:00,37.8,33.4,30.51,East,84,0.0,4.0,84,0.00,,,0.00,Wunderground v.1.15,2013-01-11 12:27:00,
2013-01-11 07:33:00,38.0,33.3,30.52,East,84,0.0,4.0,83,0.00,,,0.00,Wunderground v.1.15,2013-01-11 12:33:00,
2013-01-11 07:39:00,38.0,33.3,30.52,East,84,0.0,4.0,83,0.00,,,0.00,Wunderground v.1.15,2013-01-11 12:39:00,
2013-01-11 07:45:00,38.0,33.3,30.51,East,84,0.0,4.0,83,0.00,,,0.00,Wunderground v.1.15,2013-01-11 12:45:00,
2013-01-11 07:51:00,37.9,33.2,30.51,East,84,0.0,4.0,83,0.00,,,0.00,Wunderground v.1.15,2013-01-11 12:51:00,
2013-01-11 07:57:00,38.2,33.8,30.50,East,84,0.0,4.0,84,0.00,,,0.00,Wunderground v.1.15,2013-01-11 12:57:00,
2013-01-11 08:03:00,38.6,34.2,30.51,East,93,0.0,4.0,84,0.00,,,0.00,Wunderground v.1.15,2013-01-11 13:03:00,
2013-01-11 08:09:00,39.3,34.6,30.51,East,93,0.0,4.0,83,0.00,,,0.00,Wunderground v.1.15,2013-01-11 13:09:00,
2013-01-11 08:15:00,39.8,34.4,30.51,East,93,0.0,4.0,81,0.00,,,0.00,Wunderground v.1.15,2013-01-11 13:15:00,
2013-01-11 08:21:00,40.4,35.0,30.49,ESE,115,1.0,1.0,81,0.00,,,0.00,Wunderground v.1.15,2013-01-11 13:21:00,
2013-01-11 08:27:00,40.8,34.8,30.49,ESE,116,1.0,4.0,79,0.00,,,0.00,Wunderground v.1.15,2013-01-11 13:27:00,
2013-01-11 08:33:00,41.4,35.1,30.49,SSE,159,1.0,2.0,78,0.00,,,0.00,Wunderground v.1.15,2013-01-11 13:33:00,
2013-01-11 08:39:00,41.9,35.2,30.49,ENE,74,2.0,4.0,77,0.00,,,0.00,Wunderground v.1.15,2013-01-11 13:39:00,
2013-01-11 08:45:00,42.3,35.3,30.49,ESE,105,2.0,5.0,76,0.00,,,0.00,Wunderground v.1.15,2013-01-11 13:45:00,
2013-01-11 08:51:00,42.6,35.6,30.50,ESE,115,1.0,4.0,76,0.00,,,0.00,Wunderground v.1.15,2013-01-11 13:51:00,
2013-01-11 08:57:00,42.8,35.8,30.49,ESE,118,1.0,4.0,76,0.00,,,0.00,Wunderground v.1.15,2013-01-11 13:57:00,
2013-01-11 09:03:00,42.9,35.9,30.50,ESE,120,2.0,5.0,76,0.00,,,0.00,Wunderground v.1.15,2013-01-11 14:03:00,
2013-01-11 09:09:00,43.1,36.0,30.50,ESE,116,1.0,5.0,76,0.00,,,0.00,Wunderground v.1.15,2013-01-11 14:09:00,
2013-01-11 09:15:00,43.3,36.6,30.50,ENE,75,1.0,4.0,77,0.00,,,0.00,Wunderground v.1.15,2013-01-11 14:15:00,
2013-01-11 09:21:00,43.4,36.7,30.50,ENE,73,1.0,4.0,77,0.00,,,0.00,Wunderground v.1.15,2013-01-11 14:21:00,
2013-01-11 09:27:00,43.6,36.9,30.50,ESE,112,1.0,4.0,77,0.00,,,0.00,Wunderground v.1.15,2013-01-11 14:27:00,
2013-01-11 09:33:00,43.8,37.1,30.50,ESE,119,1.0,4.0,77,0.00,,,0.00,Wunderground v.1.15,2013-01-11 14:33:00,
2013-01-11 09:39:00,43.9,36.8,30.50,ENE,71,1.0,4.0,76,0.00,,,0.00,Wunderground v.1.15,2013-01-11 14:39:00,
2013-01-11 09:45:00,43.9,36.8,30.49,SSE,149,2.0,4.0,76,0.00,,,0.00,Wunderground v.1.15,2013-01-11 14:45:00,
2013-01-11 09:51:00,43.9,37.2,30.49,SE,131,1.0,1.0,77,0.00,,,0.00,Wunderground v.1.15,2013-01-11 14:51:00,
2013-01-11 09:57:00,44.0,37.3,30.49,East,96,1.0,4.0,77,0.00,,,0.00,Wunderground v.1.15,2013-01-11 14:57:00,
2013-01-11 10:03:00,44.0,37.3,30.48,East,101,2.0,4.0,77,0.00,,,0.00,Wunderground v.1.15,2013-01-11 15:03:00,
2013-01-11 10:09:00,44.0,37.3,30.49,East,98,2.0,6.0,77,0.00,,,0.00,Wunderground v.1.15,2013-01-11 15:09:00,
2013-01-11 10:15:00,44.1,37.3,30.49,East,89,1.0,4.0,77,0.00,,,0.00,Wunderground v.1.15,2013-01-11 15:15:00,
2013-01-11 10:21:00,44.2,37.4,30.49,East,89,0.0,4.0,77,0.00,,,0.00,Wunderground v.1.15,2013-01-11 15:21:00,
2013-01-11 10:27:00,44.3,37.5,30.48,East,91,1.0,4.0,77,0.00,,,0.00,Wunderground v.1.15,2013-01-11 15:27:00,
2013-01-11 10:33:00,44.3,37.5,30.47,East,82,1.0,4.0,77,0.00,,,0.00,Wunderground v.1.15,2013-01-11 15:33:00,
2013-01-11 10:39:00,44.3,37.5,30.47,SE,142,1.0,4.0,77,0.00,,,0.00,Wunderground v.1.15,2013-01-11 15:39:00,
2013-01-11 10:45:00,44.4,38.0,30.47,ESE,120,2.0,4.0,78,0.00,,,0.00,Wunderground v.1.15,2013-01-11 15:45:00,
2013-01-11 10:51:00,44.6,38.2,30.46,SE,130,1.0,4.0,78,0.00,,,0.00,Wunderground v.1.15,2013-01-11 15:51:00,
2013-01-11 10:57:00,44.8,38.7,30.46,SE,134,1.0,4.0,79,0.00,,,0.00,Wunderground v.1.15,2013-01-11 15:57:00,
2013-01-11 11:03:00,45.2,38.7,30.45,SSE,161,1.0,4.0,78,0.00,,,0.00,Wunderground v.1.15,2013-01-11 16:03:00,
2013-01-11 11:09:00,45.8,39.3,30.44,ESE,115,1.0,4.0,78,0.00,,,0.00,Wunderground v.1.15,2013-01-11 16:09:00,
2013-01-11 11:15:00,46.0,39.5,30.43,ENE,74,2.0,5.0,78,0.00,,,0.00,Wunderground v.1.15,2013-01-11 16:15:00,
2013-01-11 11:21:00,46.0,39.5,30.42,SE,132,3.0,3.0,78,0.00,,,0.00,Wunderground v.1.15,2013-01-11 16:21:00,
2013-01-11 11:27:00,46.1,39.6,30.42,SE,134,2.0,4.0,78,0.00,,,0.00,Wunderground v.1.15,2013-01-11 16:27:00,
2013-01-11 11:33:00,46.1,39.6,30.42,SSE,157,2.0,6.0,78,0.00,,,0.00,Wunderground v.1.15,2013-01-11 16:33:00,
2013-01-11 11:39:00,46.2,40.0,30.42,SSE,147,2.0,6.0,79,0.00,,,0.00,Wunderground v.1.15,2013-01-11 16:39:00,
2013-01-11 11:45:00,46.3,40.1,30.41,ENE,67,1.0,4.0,79,0.00,,,0.00,Wunderground v.1.15,2013-01-11 16:45:00,
2013-01-11 11:51:00,46.5,40.3,30.41,ESE,105,1.0,1.0,79,0.00,,,0.00,Wunderground v.1.15,2013-01-11 16:51:00,
2013-01-11 11:57:00,46.6,40.4,30.40,SE,146,1.0,4.0,79,0.00,,,0.00,Wunderground v.1.15,2013-01-11 16:57:00,
2013-01-11 12:03:00,46.7,40.5,30.40,SSE,150,2.0,4.0,79,0.00,,,0.00,Wunderground v.1.15,2013-01-11 17:03:00,
2013-01-11 12:09:00,46.8,40.6,30.40,ENE,64,2.0,4.0,79,0.00,,,0.00,Wunderground v.1.15,2013-01-11 17:09:00,
2013-01-11 12:15:00,47.0,40.5,30.39,ESE,118,1.0,4.0,78,0.00,,,0.00,Wunderground v.1.15,2013-01-11 17:15:00,
2013-01-11 12:21:00,47.1,40.3,30.39,ENE,76,2.0,4.0,77,0.00,,,0.00,Wunderground v.1.15,2013-01-11 17:21:00,
2013-01-11 12:27:00,47.0,40.2,30.38,SE,145,3.0,8.0,77,0.00,,,0.00,Wunderground v.1.15,2013-01-11 17:27:00,
2013-01-11 12:33:00,47.0,40.2,30.39,SE,128,2.0,4.0,77,0.00,,,0.00,Wunderground v.1.15,2013-01-11 17:33:00,
2013-01-11 12:39:00,47.1,40.3,30.38,East,84,1.0,4.0,77,0.00,,,0.00,Wunderground v.1.15,2013-01-11 17:39:00,
2013-01-11 12:45:00,47.2,40.7,30.37,SE,138,2.0,4.0,78,0.00,,,0.00,Wunderground v.1.15,2013-01-11 17:45:00,
2013-01-11 12:51:00,47.2,40.4,30.37,East,90,1.0,4.0,77,0.00,,,0.00,Wunderground v.1.15,2013-01-11 17:51:00,
2013-01-11 12:57:00,47.2,40.7,30.37,SE,140,1.0,4.0,78,0.00,,,0.00,Wunderground v.1.15,2013-01-11 17:57:00,
2013-01-11 13:03:00,47.4,41.2,30.37,SE,140,1.0,4.0,79,0.00,,,0.00,Wunderground v.1.15,2013-01-11 18:03:00,
2013-01-11 13:09:00,47.4,41.5,30.38,SE,135,1.0,4.0,80,0.00,,,0.00,Wunderground v.1.15,2013-01-11 18:09:00,
2013-01-11 13:15:00,47.3,41.4,30.37,SE,135,0.0,4.0,80,0.00,,,0.00,Wunderground v.1.15,2013-01-11 18:15:00,
2013-01-11 13:21:00,47.2,41.3,30.36,SE,131,1.0,1.0,80,0.00,,,0.00,Wunderground v.1.15,2013-01-11 18:21:00,
2013-01-11 13:27:00,47.2,41.3,30.37,SE,139,2.0,4.0,80,0.00,,,0.00,Wunderground v.1.15,2013-01-11 18:27:00,
2013-01-11 13:33:00,47.2,41.3,30.36,SE,129,2.0,4.0,80,0.00,,,0.00,Wunderground v.1.15,2013-01-11 18:33:00,
2013-01-11 13:39:00,47.4,41.5,30.36,ESE,119,2.0,4.0,80,0.00,,,0.00,Wunderground v.1.15,2013-01-11 18:39:00,
2013-01-11 13:45:00,47.7,41.8,30.35,SE,130,2.0,4.0,80,0.00,,,0.00,Wunderground v.1.15,2013-01-11 18:45:00,
2013-01-11 13:51:00,47.8,41.6,30.37,ESE,120,2.0,5.0,79,0.00,,,0.00,Wunderground v.1.15,2013-01-11 18:51:00,
2013-01-11 13:57:00,47.7,41.8,30.37,SE,131,2.0,5.0,80,0.00,,,0.00,Wunderground v.1.15,2013-01-11 18:57:00,
2013-01-11 14:03:00,47.9,42.0,30.36,South,171,1.0,4.0,80,0.00,,,0.00,Wunderground v.1.15,2013-01-11 19:03:00,
2013-01-11 14:09:00,47.9,42.0,30.36,ESE,120,1.0,4.0,80,0.00,,,0.00,Wunderground v.1.15,2013-01-11 19:09:00,
2013-01-11 14:15:00,47.9,42.0,30.36,SSE,155,1.0,4.0,80,0.00,,,0.00,Wunderground v.1.15,2013-01-11 19:15:00,
2013-01-11 14:21:00,47.7,42.2,30.35,East,90,2.0,2.0,81,0.00,,,0.00,Wunderground v.1.15,2013-01-11 19:21:00,
2013-01-11 14:27:00,47.6,42.4,30.34,ESE,117,2.0,4.0,82,0.00,,,0.00,Wunderground v.1.15,2013-01-11 19:27:00,
2013-01-11 14:33:00,47.4,42.5,30.34,SE,145,1.0,5.0,83,0.00,,,0.00,Wunderground v.1.15,2013-01-11 19:33:00,
2013-01-11 14:39:00,47.1,42.5,30.34,SE,145,1.0,5.0,84,0.00,,,0.00,Wunderground v.1.15,2013-01-11 19:39:00,
2013-01-11 14:45:00,47.0,42.7,30.34,SE,126,0.0,4.0,85,0.00,,,0.00,Wunderground v.1.15,2013-01-11 19:45:00,
2013-01-11 14:51:00,46.9,42.9,30.34,SSE,159,1.0,4.0,86,0.00,,,0.00,Wunderground v.1.15,2013-01-11 19:51:00,
2013-01-11 14:57:00,46.6,42.9,30.33,ESE,121,1.0,4.0,87,0.00,,,0.01,Wunderground v.1.15,2013-01-11 19:57:00,
2013-01-11 15:03:00,46.4,43.0,30.32,ESE,108,1.0,4.0,88,0.00,,,0.01,Wunderground v.1.15,2013-01-11 20:03:00,
2013-01-11 15:09:00,46.2,43.1,30.32,ENE,64,1.0,4.0,89,0.00,,,0.01,Wunderground v.1.15,2013-01-11 20:09:00,
2013-01-11 15:15:00,46.1,43.0,30.32,ESE,117,0.0,4.0,89,0.00,,,0.01,Wunderground v.1.15,2013-01-11 20:15:00,
2013-01-11 15:21:00,46.1,43.0,30.31,ESE,117,0.0,4.0,89,0.00,,,0.01,Wunderground v.1.15,2013-01-11 20:21:00,
2013-01-11 15:27:00,46.1,43.3,30.32,ESE,122,0.0,4.0,90,0.00,,,0.01,Wunderground v.1.15,2013-01-11 20:27:00,
2013-01-11 15:33:00,46.1,43.3,30.31,ESE,122,0.0,4.0,90,0.00,,,0.01,Wunderground v.1.15,2013-01-11 20:33:00,
2013-01-11 15:39:00,46.1,43.3,30.32,ESE,122,0.0,4.0,90,0.00,,,0.01,Wunderground v.1.15,2013-01-11 20:39:00,
2013-01-11 15:45:00,46.2,43.4,30.32,SE,140,0.0,4.0,90,0.00,,,0.01,Wunderground v.1.15,2013-01-11 20:45:00,
2013-01-11 15:51:00,46.2,43.7,30.31,SE,140,0.0,4.0,91,0.00,,,0.01,Wunderground v.1.15,2013-01-11 20:51:00,
2013-01-11 15:57:00,46.3,43.8,30.30,SE,140,0.0,4.0,91,0.00,,,0.01,Wunderground v.1.15,2013-01-11 20:57:00,
2013-01-11 16:03:00,46.3,44.1,30.30,SE,140,0.0,4.0,92,0.00,,,0.02,Wunderground v.1.15,2013-01-11 21:03:00,
2013-01-11 16:09:00,46.3,44.1,30.30,South,177,0.0,4.0,92,0.00,,,0.02,Wunderground v.1.15,2013-01-11 21:09:00,
2013-01-11 16:15:00,46.3,44.1,30.30,South,176,0.0,4.0,92,0.00,,,0.02,Wunderground v.1.15,2013-01-11 21:15:00,
2013-01-11 16:21:00,46.3,44.1,30.30,South,176,0.0,4.0,92,0.00,,,0.02,Wunderground v.1.15,2013-01-11 21:21:00,
2013-01-11 16:27:00,46.4,44.5,30.30,South,176,0.0,4.0,93,0.00,,,0.02,Wunderground v.1.15,2013-01-11 21:27:00,
2013-01-11 16:33:00,46.4,44.5,30.29,South,176,0.0,4.0,93,0.00,,,0.02,Wunderground v.1.15,2013-01-11 21:33:00,
2013-01-11 16:39:00,46.3,44.4,30.29,South,176,0.0,4.0,93,0.00,,,0.02,Wunderground v.1.15,2013-01-11 21:39:00,
2013-01-11 16:45:00,46.3,44.4,30.29,South,176,0.0,4.0,93,0.00,,,0.02,Wunderground v.1.15,2013-01-11 21:45:00,
2013-01-11 16:51:00,46.4,44.5,30.29,South,173,1.0,1.0,93,0.00,,,0.02,Wunderground v.1.15,2013-01-11 21:51:00,
2013-01-11 16:57:00,46.3,44.4,30.29,South,173,1.0,4.0,93,0.00,,,0.02,Wunderground v.1.15,2013-01-11 21:57:00,
2013-01-11 17:03:00,46.3,44.4,30.29,South,173,0.0,4.0,93,0.00,,,0.02,Wunderground v.1.15,2013-01-11 22:03:00,
2013-01-11 17:09:00,46.3,44.4,30.29,South,173,0.0,4.0,93,0.00,,,0.02,Wunderground v.1.15,2013-01-11 22:09:00,
2013-01-11 17:15:00,46.3,44.7,30.28,South,173,0.0,4.0,94,0.13,,,0.04,Wunderground v.1.15,2013-01-11 22:15:00,
2013-01-11 17:21:00,46.3,44.7,30.28,SSE,165,1.0,4.0,94,0.10,,,0.05,Wunderground v.1.15,2013-01-11 22:21:00,
2013-01-11 17:27:00,46.3,44.7,30.28,SSE,168,1.0,4.0,94,0.17,,,0.06,Wunderground v.1.15,2013-01-11 22:27:00,
2013-01-11 17:33:00,46.3,44.7,30.28,South,177,0.0,4.0,94,0.12,,,0.07,Wunderground v.1.15,2013-01-11 22:33:00,
2013-01-11 17:39:00,46.3,44.7,30.27,South,182,1.0,4.0,94,0.11,,,0.08,Wunderground v.1.15,2013-01-11 22:39:00,
2013-01-11 17:45:00,46.3,44.9,30.26,SSE,162,1.0,4.0,95,0.08,,,0.09,Wunderground v.1.15,2013-01-11 22:45:00,
2013-01-11 17:51:00,46.2,44.8,30.26,East,96,0.0,4.0,95,0.13,,,0.10,Wunderground v.1.15,2013-01-11 22:51:00,
2013-01-11 17:57:00,46.1,44.7,30.26,SE,144,0.0,4.0,95,0.07,,,0.11,Wunderground v.1.15,2013-01-11 22:57:00,
2013-01-11 18:03:00,46.1,44.7,30.25,SE,144,1.0,4.0,95,0.07,,,0.11,Wunderground v.1.15,2013-01-11 23:03:00,
2013-01-11 18:09:00,46.1,44.7,30.25,SE,144,0.0,4.0,95,0.05,,,0.11,Wunderground v.1.15,2013-01-11 23:09:00,
2013-01-11 18:15:00,46.1,44.7,30.25,SE,144,0.0,4.0,95,0.11,,,0.13,Wunderground v.1.15,2013-01-11 23:15:00,
2013-01-11 18:21:00,46.0,44.6,30.24,SSE,149,1.0,5.0,95,0.11,,,0.14,Wunderground v.1.15,2013-01-11 23:21:00,
2013-01-11 18:27:00,46.0,44.6,30.24,SSE,150,1.0,5.0,95,0.10,,,0.15,Wunderground v.1.15,2013-01-11 23:27:00,
2013-01-11 18:33:00,46.1,44.7,30.24,SE,144,1.0,4.0,95,0.20,,,0.17,Wunderground v.1.15,2013-01-11 23:33:00,
2013-01-11 18:39:00,46.1,44.7,30.22,SE,139,2.0,4.0,95,0.12,,,0.18,Wunderground v.1.15,2013-01-11 23:39:00,
2013-01-11 18:45:00,46.2,44.8,30.22,SE,145,2.0,4.0,95,0.11,,,0.19,Wunderground v.1.15,2013-01-11 23:45:00,
2013-01-11 18:51:00,46.1,44.7,30.22,SSE,153,3.0,3.0,95,0.10,,,0.20,Wunderground v.1.15,2013-01-11 23:51:00,
2013-01-11 18:57:00,46.1,44.7,30.22,South,169,2.0,4.0,95,0.06,,,0.21,Wunderground v.1.15,2013-01-11 23:57:00,
2013-01-11 19:03:00,46.0,44.6,30.20,South,190,2.0,5.0,95,0.13,,,0.22,Wunderground v.1.15,2013-01-12 00:03:00,
2013-01-11 19:09:00,46.0,44.6,30.20,ESE,122,3.0,5.0,95,0.24,,,0.23,Wunderground v.1.15,2013-01-12 00:09:00,
2013-01-11 19:15:00,45.9,44.5,30.19,SSE,167,3.0,5.0,95,0.11,,,0.25,Wunderground v.1.15,2013-01-12 00:15:00,
2013-01-11 19:21:00,45.9,44.5,30.19,South,180,3.0,3.0,95,0.09,,,0.25,Wunderground v.1.15,2013-01-12 00:21:00,
2013-01-11 19:27:00,46.0,44.9,30.19,SSE,154,3.0,4.0,96,0.06,,,0.26,Wunderground v.1.15,2013-01-12 00:27:00,
2013-01-11 19:33:00,46.1,45.0,30.19,SSE,161,4.0,7.0,96,0.08,,,0.27,Wunderground v.1.15,2013-01-12 00:33:00,
2013-01-11 19:39:00,46.1,45.0,30.19,SSE,160,4.0,7.0,96,0.13,,,0.28,Wunderground v.1.15,2013-01-12 00:39:00,
2013-01-11 19:45:00,46.3,45.2,30.20,SE,126,2.0,4.0,96,0.12,,,0.29,Wunderground v.1.15,2013-01-12 00:45:00,
2013-01-11 19:51:00,46.4,45.3,30.21,SE,137,1.0,4.0,96,0.33,,,0.32,Wunderground v.1.15,2013-01-12 00:51:00,
2013-01-11 19:57:00,46.6,45.5,30.20,South,169,1.0,4.0,96,0.21,,,0.34,Wunderground v.1.15,2013-01-12 00:57:00,
2013-01-11 20:03:00,46.6,45.5,30.21,South,171,1.0,4.0,96,0.07,,,0.34,Wunderground v.1.15,2013-01-12 01:03:00,
2013-01-11 20:09:00,46.7,45.6,30.23,NW,304,1.0,4.0,96,0.18,,,0.36,Wunderground v.1.15,2013-01-12 01:09:00,
2013-01-11 20:15:00,46.7,45.6,30.23,NW,304,2.0,4.0,96,0.15,,,0.37,Wunderground v.1.15,2013-01-12 01:15:00,
2013-01-11 20:21:00,46.7,45.6,30.22,NW,304,0.0,4.0,96,0.31,,,0.41,Wunderground v.1.15,2013-01-12 01:21:00,
2013-01-11 20:27:00,46.7,45.6,30.23,NNW,338,1.0,4.0,96,0.15,,,0.42,Wunderground v.1.15,2013-01-12 01:27:00,
2013-01-11 20:33:00,46.7,45.6,30.22,NNW,338,1.0,4.0,96,0.25,,,0.44,Wunderground v.1.15,2013-01-12 01:33:00,
2013-01-11 20:39:00,46.6,45.5,30.21,NNW,338,0.0,4.0,96,0.13,,,0.45,Wunderground v.1.15,2013-01-12 01:39:00,
2013-01-11 20:45:00,46.5,45.4,30.20,NNW,338,0.0,4.0,96,0.17,,,0.47,Wunderground v.1.15,2013-01-12 01:45:00,
2013-01-11 20:51:00,46.4,45.3,30.20,NNW,338,0.0,4.0,96,0.18,,,0.49,Wunderground v.1.15,2013-01-12 01:51:00,
2013-01-11 20:57:00,46.4,45.3,30.20,NE,41,1.0,4.0,96,0.15,,,0.50,Wunderground v.1.15,2013-01-12 01:57:00,
2013-01-11 21:03:00,46.4,45.3,30.19,NE,41,1.0,4.0,96,0.13,,,0.52,Wunderground v.1.15,2013-01-12 02:03:00,
2013-01-11 21:09:00,46.3,45.2,30.19,NE,41,0.0,4.0,96,0.10,,,0.52,Wunderground v.1.15,2013-01-12 02:09:00,
2013-01-11 21:15:00,46.3,45.2,30.19,NE,41,0.0,4.0,96,0.06,,,0.53,Wunderground v.1.15,2013-01-12 02:15:00,
2013-01-11 21:21:00,46.1,45.0,30.19,ENE,71,1.0,1.0,96,0.13,,,0.55,Wunderground v.1.15,2013-01-12 02:21:00,
2013-01-11 21:27:00,46.0,44.9,30.18,ENE,71,0.0,4.0,96,0.13,,,0.56,Wunderground v.1.15,2013-01-12 02:27:00,
2013-01-11 21:33:00,46.0,44.9,30.18,East,82,0.0,4.0,96,0.16,,,0.58,Wunderground v.1.15,2013-01-12 02:33:00,
2013-01-11 21:39:00,46.0,44.9,30.18,East,80,0.0,4.0,96,0.08,,,0.58,Wunderground v.1.15,2013-01-12 02:39:00,
2013-01-11 21:45:00,46.1,45.0,30.18,ENE,68,0.0,4.0,96,0.07,,,0.59,Wunderground v.1.15,2013-01-12 02:45:00,
2013-01-11 21:51:00,46.1,45.0,30.18,ENE,69,0.0,4.0,96,0.09,,,0.60,Wunderground v.1.15,2013-01-12 02:51:00,
2013-01-11 21:57:00,46.1,45.0,30.18,ENE,69,0.0,4.0,96,0.19,,,0.62,Wunderground v.1.15,2013-01-12 02:57:00,
2013-01-11 22:03:00,46.1,45.0,30.18,NE,49,1.0,4.0,96,0.14,,,0.64,Wunderground v.1.15,2013-01-12 03:03:00,
2013-01-11 22:09:00,46.1,45.0,30.18,NE,49,1.0,4.0,96,0.08,,,0.65,Wunderground v.1.15,2013-01-12 03:09:00,
2013-01-11 22:15:00,46.1,45.0,30.18,ENE,57,0.0,4.0,96,0.08,,,0.65,Wunderground v.1.15,2013-01-12 03:15:00,
2013-01-11 22:21:00,46.1,45.0,30.17,ENE,57,0.0,4.0,96,0.05,,,0.66,Wunderground v.1.15,2013-01-12 03:21:00,
2013-01-11 22:27:00,46.1,45.3,30.16,ENE,67,0.0,4.0,97,0.05,,,0.66,Wunderground v.1.15,2013-01-12 03:27:00,
2013-01-11 22:33:00,46.1,45.3,30.16,ENE,65,0.0,4.0,97,0.12,,,0.68,Wunderground v.1.15,2013-01-12 03:33:00,
2013-01-11 22:39:00,46.1,45.3,30.16,East,96,0.0,4.0,97,0.09,,,0.68,Wunderground v.1.15,2013-01-12 03:39:00,
2013-01-11 22:45:00,46.1,45.3,30.15,East,92,1.0,4.0,97,0.05,,,0.68,Wunderground v.1.15,2013-01-12 03:45:00,
2013-01-11 22:51:00,46.1,45.3,30.15,East,80,0.0,4.0,97,0.00,,,0.68,Wunderground v.1.15,2013-01-12 03:51:00,
2013-01-11 22:57:00,46.1,45.3,30.15,East,83,0.0,4.0,97,0.00,,,0.68,Wunderground v.1.15,2013-01-12 03:57:00,
2013-01-11 23:03:00,46.2,45.4,30.14,East,94,1.0,4.0,97,0.00,,,0.68,Wunderground v.1.15,2013-01-12 04:03:00,
2013-01-11 23:09:00,46.3,45.5,30.14,East,80,0.0,4.0,97,0.00,,,0.69,Wunderground v.1.15,2013-01-12 04:09:00,
2013-01-11 23:15:00,46.3,45.5,30.13,East,82,0.0,4.0,97,0.08,,,0.70,Wunderground v.1.15,2013-01-12 04:15:00,
2013-01-11 23:21:00,46.3,45.5,30.13,SE,144,1.0,1.0,97,0.07,,,0.70,Wunderground v.1.15,2013-01-12 04:21:00,
2013-01-11 23:27:00,46.4,45.6,30.13,SSE,154,1.0,4.0,97,0.04,,,0.70,Wunderground v.1.15,2013-01-12 04:27:00,
2013-01-11 23:33:00,46.4,45.6,30.12,East,91,0.0,4.0,97,0.00,,,0.70,Wunderground v.1.15,2013-01-12 04:33:00,
2013-01-11 23:39:00,46.6,45.8,30.12,ESE,119,0.0,4.0,97,0.00,,,0.70,Wunderground v.1.15,2013-01-12 04:39:00,
2013-01-11 23:45:00,46.8,46.0,30.12,ESE,119,0.0,4.0,97,0.00,,,0.70,Wunderground v.1.15,2013-01-12 04:45:00,
2013-01-11 23:51:00,47.0,46.2,30.12,NE,55,0.0,4.0,97,0.00,,,0.70,Wunderground v.1.15,2013-01-12 04:51:00,
2013-01-11 23:57:00,47.0,46.2,30.12,NE,55,0.0,4.0,97,0.00,,,0.00,Wunderground v.1.15,2013-01-12 04:57:00,